Tracking 34717 objects as of 14-Jul-2026
HD Live streaming from Space Station
objects crossing your sky now

TITAN 3C TRANSTAGE DEB

Track TITAN 3C TRANSTAGE DEB now!
10-day predictions


NORAD ID: 47713
Int'l Code: 2021-015Q
Perigee: 560.6 km
Apogee: 17,586.5 km
Inclination: 27.0 °
Period: 318.4 minutes
Semi major axis: 15444 km
RCS: Unknown
Launch date: February 28, 2021
Source: United States (US)
Launch site: SRIHARIKOTA (SRI)

Note: This is SATELLITE DEBRIS
Your satellite tracking list
Your tracking list is empty




NASA's NSSDC Master Catalog

Two Line Element Set (TLE):
1 47713U 65108DS  26179.56927447  .00000248  00000-0  86033-3 0  9998
2 47713  26.9783 290.5046 5511917 227.9693  69.9288  4.52314123207828
Source of the keplerian elements: AFSPC